Theta_e
342 338 324 324 324 323 324 326 327 326 333 338 339 338 338 338 336 334 332 329 331 336 335 334 333 333 324 327 331 331 319 316 316 316 316 319 325 332 334 333 332 333 333
342 340 325 324 324 324 329 334 333 329 333 338 339 338 338 337 336 331 328 329 333 334 332 333 331 323 316 319 319 315 316 316 316 316 324 333 333 333 334 331 329 330 330
342 338 325 324 323 326 334 335 335 331 333 337 339 338 338 337 335 327 330 333 333 332 334 333 330 318 314 314 315 316 322 332 333 333 332 331 331 331 330 327 328 328 327
344 333 325 324 323 331 335 335 334 334 334 337 339 338 337 337 333 329 332 331 333 333 336 334 321 314 314 315 316 330 335 335 335 333 333 333 329 327 327 329 329 329 330
344 336 325 323 323 333 335 335 334 336 334 337 339 338 337 336 332 332 331 332 334 336 335 326 316 314 315 316 331 334 336 334 333 332 331 329 329 329 328 330 329 328 325
342 340 334 322 323 333 335 335 335 336 335 335 339 338 337 335 331 328 329 331 336 336 334 316 313 314 315 318 332 332 333 333 334 330 333 331 329 329 329 327 324 322 321
341 341 338 322 328 334 336 336 336 335 335 330 339 338 337 336 329 328 333 333 335 334 324 313 314 315 321 331 332 332 332 331 330 331 329 330 329 327 326 323 322 320 319
341 341 337 323 332 337 338 336 336 335 336 333 338 338 338 335 333 333 333 333 334 331 318 315 315 317 330 332 332 332 332 332 332 331 330 330 328 325 322 320 315 311 309
341 341 324 328 335 338 338 337 336 335 336 334 338 338 337 335 334 335 334 334 334 328 329 315 315 322 331 331 332 332 332 332 331 331 329 329 325 322 322 317 311 304 302
341 341 333 331 337 338 338 337 336 336 337 334 338 338 336 336 336 335 336 335 333 328 327 315 318 322 332 334 334 333 332 331 332 330 329 327 323 322 321 314 306 302 302
343 343 338 340 340 339 338 336 336 336 336 336 336 335 337 336 334 335 335 331 330 325 317 316 320 328 334 334 333 334 333 332 331 330 328 327 323 322 317 310 304 302 302
342 341 337 341 340 341 340 337 337 338 337 336 336 338 336 334 336 332 332 330 323 319 317 322 320 326 334 334 333 334 332 332 331 329 326 325 322 322 310 306 301 301 301
340 340 339 339 340 341 340 338 338 339 338 336 339 335 333 331 334 332 329 324 321 318 320 323 320 323 330 333 334 334 333 331 330 327 326 323 322 312 309 305 301 301 301
341 338 341 340 340 340 341 339 338 339 339 337 335 334 328 334 335 331 318 320 319 318 323 323 322 323 328 333 333 333 332 330 328 328 326 323 315 310 307 303 301 301 301
342 340 338 342 339 340 340 340 339 340 338 337 335 333 325 332 334 329 316 318 320 323 323 323 326 332 333 334 333 333 331 331 329 327 326 323 311 310 308 305 301 301 300
341 340 339 341 340 340 340 340 339 340 337 336 336 332 327 330 331 318 316 323 330 332 330 330 333 334 334 334 333 331 330 330 328 327 326 322 312 311 310 306 301 300 300
339 340 340 339 341 339 340 340 340 340 337 336 335 330 327 327 329 315 325 331 333 335 330 332 334 334 335 335 331 331 330 329 327 327 324 322 315 311 311 308 305 300 300
333 340 341 339 340 341 340 340 341 339 338 337 335 333 329 327 328 327 332 331 333 334 333 334 334 334 335 334 331 330 330 328 327 326 323 322 321 316 311 310 306 301 299
330 339 340 339 338 340 340 340 339 339 338 337 335 333 330 324 325 332 335 332 332 335 334 335 333 332 335 331 330 331 330 328 327 325 324 322 320 319 315 311 309 305 300
322 338 340 339 339 337 341 339 339 339 338 336 336 333 330 323 322 332 322 328 331 333 334 334 333 332 333 331 331 330 329 328 327 325 324 323 319 319 319 314 309 307 301
318 337 339 338 338 338 339 339 339 338 338 338 335 333 331 332 321 320 324 328 330 334 333 333 331 330 331 333 331 330 329 328 327 325 324 322 321 319 318 317 309 308 307
319 336 338 337 336 338 339 339 339 339 337 339 336 334 333 330 332 331 331 331 332 334 330 333 330 330 331 330 331 329 326 327 327 326 324 322 321 319 317 316 311 311 308
319 335 337 338 337 335 337 338 338 337 337 337 336 336 334 330 327 332 332 332 334 333 333 332 329 327 327 330 331 329 327 328 327 326 325 324 322 319 317 316 311 311 308
321 334 336 337 337 336 335 337 338 337 335 337 336 336 335 332 329 329 330 330 332 329 332 331 331 329 326 330 330 330 331 329 328 324 326 325 322 320 318 315 315 309 308
318 332 336 336 337 336 334 336 337 335 334 335 336 335 334 332 332 326 331 334 329 331 331 330 331 328 327 329 330 331 331 331 330 327 325 325 323 321 320 317 315 314 310
319 326 335 336 336 336 335 334 335 333 335 334 335 336 334 332 328 325 329 332 330 332 333 331 329 327 330 331 330 330 331 331 329 327 327 325 325 324 322 321 317 315 313
Wind_Speed
2 5 12 12 12 12 12 13 16 19 21 20 20 20 20 21 21 22 24 25 26 25 23 21 18 18 18 22 21 18 18 21 23 25 26 26 26 27 23 19 18 20 19
8 6 12 13 11 12 13 15 17 20 22 22 21 20 20 21 22 21 23 27 26 24 22 18 18 19 21 21 20 21 23 24 25 25 26 25 22 22 19 17 16 16 14
8 7 14 12 11 11 14 15 18 21 23 23 22 22 21 22 22 24 27 27 23 21 20 20 20 20 22 23 25 28 31 31 28 24 20 21 20 18 15 13 12 11 11
8 11 15 12 10 11 13 15 18 21 23 23 23 22 22 22 24 27 29 22 23 19 18 18 19 23 24 26 29 33 33 29 27 16 20 18 17 14 12 13 12 11 11
9 13 13 11 10 11 13 14 18 20 24 23 23 23 23 24 28 27 24 25 14 20 19 19 23 25 26 29 33 31 28 25 22 19 19 16 16 14 12 12 10 10 9
10 16 10 11 10 12 13 15 19 20 23 27 23 24 24 26 28 27 24 20 20 18 16 21 23 26 27 30 28 29 30 24 20 13 19 15 15 12 11 10 10 9 7
16 16 9 10 11 12 14 17 20 22 23 29 24 24 25 28 30 28 20 20 19 20 19 22 25 28 32 35 33 30 26 23 12 18 15 15 13 12 10 9 7 5 5
10 12 13 12 11 11 14 19 21 25 25 27 24 24 25 26 26 24 24 20 23 25 24 22 26 31 34 32 29 27 24 23 16 15 12 12 11 10 10 8 7 6 6
13 9 14 13 12 12 15 20 24 27 26 29 25 25 27 28 24 20 25 25 28 26 23 25 29 31 30 30 30 24 20 13 15 12 10 11 9 9 8 9 8 8 10
12 12 9 14 13 14 17 20 25 26 26 28 24 21 25 20 17 19 24 33 30 26 20 31 32 32 32 30 23 25 19 11 14 9 10 10 8 7 8 8 9 10 11
14 15 13 12 13 14 18 22 24 25 26 24 25 22 25 19 17 23 29 28 26 27 32 33 34 34 32 28 24 26 16 12 8 8 10 7 6 6 7 9 9 11 12
17 15 15 17 15 16 18 24 26 27 27 26 23 25 23 19 18 26 29 28 27 31 32 33 33 33 30 26 22 19 14 12 9 8 11 8 6 6 8 9 10 11 12
17 18 17 18 18 17 21 26 27 28 29 28 28 28 24 20 30 28 29 28 32 33 33 32 32 33 30 24 22 17 16 11 7 10 10 8 6 7 9 9 10 11 12
22 16 19 19 22 18 23 26 29 30 34 34 32 33 27 19 35 29 32 33 34 34 34 32 31 28 22 17 13 18 15 11 8 10 9 6 7 9 10 10 10 10 12
25 25 20 22 21 23 22 28 29 33 38 37 36 36 33 26 27 29 36 36 35 34 33 31 28 24 21 19 18 20 15 10 8 10 7 5 7 8 9 8 8 9 10
23 26 24 25 24 24 24 29 31 35 39 37 38 38 36 31 28 30 38 37 33 27 30 30 25 22 22 21 19 17 13 10 8 7 4 4 6 7 7 7 7 7 7
25 25 29 29 27 26 25 30 31 37 38 38 40 43 45 38 30 36 38 33 30 27 26 24 22 21 24 20 19 15 13 9 7 5 5 7 4 5 5 5 4 5 5
26 30 32 28 32 29 28 30 35 37 38 41 42 45 39 41 37 37 33 35 33 29 29 24 27 25 23 22 20 17 14 10 7 5 6 6 6 3 3 3 3 3 3
30 33 36 30 33 34 30 29 33 36 39 42 44 35 39 43 41 41 38 38 37 27 32 30 28 25 24 26 22 18 14 10 8 10 10 2 4 5 3 2 0 1 2
31 36 37 34 33 37 32 31 31 35 37 43 42 39 30 33 41 44 30 35 34 29 27 27 23 24 26 28 24 22 16 13 11 12 12 8 6 8 9 3 3 3 2
32 39 39 33 38 37 35 37 34 39 35 39 45 47 42 37 39 36 32 34 34 30 30 23 22 25 29 28 25 20 16 13 13 13 8 7 10 12 11 6 5 5 3
30 39 39 35 38 36 36 34 36 36 40 35 44 48 44 44 39 36 34 35 33 31 29 26 25 29 29 26 24 19 12 12 15 13 12 9 10 9 13 10 4 6 6
31 37 39 39 40 38 41 33 33 29 36 38 40 45 44 45 44 39 32 39 35 26 26 29 27 29 31 28 25 16 9 8 15 18 15 12 13 14 15 11 11 15 12
28 35 41 42 41 37 41 40 33 34 35 43 43 43 46 44 42 45 34 36 38 34 32 33 31 29 28 29 25 18 7 10 9 8 18 18 16 16 17 16 13 13 16
27 36 43 42 40 37 41 43 34 31 30 37 43 40 37 42 43 47 41 35 37 36 36 36 33 31 28 28 27 24 18 11 12 9 10 16 19 16 16 18 17 13 14
16 13 43 45 41 40 39 45 45 42 29 34 37 42 38 44 44 52 46 35 39 38 34 35 34 30 27 24 27 24 23 22 20 15 12 13 13 14 14 14 18 17 15
Wind_Direction
211 188 176 174 173 171 170 173 175 171 163 161 156 155 156 151 154 151 148 147 146 145 144 143 145 146 147 142 141 140 136 126 120 111 106 101 96 93 95 96 94 92 93
184 200 178 175 177 170 168 172 174 172 167 164 159 160 158 156 154 154 150 145 144 144 140 146 142 142 140 138 137 126 120 113 107 106 101 96 101 105 108 104 99 98 99
226 200 178 173 177 171 167 168 170 171 170 164 161 162 162 160 156 153 146 144 146 146 145 147 140 140 135 128 126 117 105 99 97 95 99 107 110 115 115 105 104 100 96
236 180 171 170 175 168 161 165 169 170 170 164 162 162 163 160 156 153 147 154 144 148 143 141 138 135 132 129 119 113 109 104 98 99 96 102 110 110 102 100 103 101 101
171 154 162 172 176 168 163 166 168 171 168 162 161 165 165 160 154 155 156 157 146 146 149 147 138 134 130 124 119 114 111 106 104 119 125 110 108 109 106 102 94 85 82
156 176 174 177 179 171 169 171 171 168 166 163 165 168 169 165 164 165 169 162 159 147 157 141 137 132 126 120 115 107 102 103 110 146 107 111 104 107 95 89 83 76 69
178 188 190 186 184 177 174 176 173 166 171 171 172 174 174 174 170 167 170 178 174 159 154 143 140 130 124 121 117 114 112 115 150 109 110 107 104 98 93 84 71 58 51
180 207 190 187 185 178 175 175 175 170 175 172 173 177 176 171 179 184 175 164 159 156 141 146 139 133 130 124 120 118 110 114 113 124 126 113 96 92 78 58 48 56 76
167 218 174 179 177 170 172 175 178 175 175 172 175 179 176 178 183 193 194 195 195 169 154 150 142 138 131 130 125 119 121 138 120 128 122 106 97 87 64 52 64 73 85
161 209 188 175 168 168 171 175 178 176 179 178 179 184 175 181 186 193 190 183 174 178 184 152 146 138 135 129 132 123 122 127 127 137 102 101 99 79 53 58 75 82 88
171 196 190 168 163 166 171 169 171 175 179 181 185 184 183 178 187 204 178 154 159 161 159 154 147 142 136 133 135 134 143 143 146 117 92 80 91 68 50 75 82 88 90
195 197 182 173 167 169 175 169 171 173 177 178 181 173 166 174 173 152 155 155 160 160 158 153 150 144 144 144 138 141 146 160 153 113 86 81 91 52 69 80 85 90 95
218 194 188 178 181 181 177 173 174 173 177 178 174 160 158 164 158 156 159 162 163 161 158 155 154 151 151 149 152 144 148 153 158 115 101 98 75 61 81 84 91 96 100
193 202 186 190 183 190 182 177 178 175 177 178 168 168 148 166 166 163 164 166 164 162 161 160 160 160 155 161 174 146 150 160 142 122 104 92 72 83 85 89 99 102 100
187 191 203 192 189 194 186 186 181 180 177 173 172 173 154 173 173 178 168 167 165 165 166 166 163 159 170 173 166 158 163 154 131 107 99 87 88 88 87 92 100 103 103
192 194 210 192 194 198 193 190 187 182 183 182 181 176 159 175 185 185 170 168 161 171 169 167 169 176 172 170 162 161 158 155 109 104 106 89 102 100 93 83 86 97 106
203 199 209 197 196 199 196 193 190 189 189 185 183 177 171 172 180 179 168 172 168 180 173 170 187 184 169 160 161 163 166 157 139 149 115 75 123 116 110 97 88 94 109
208 198 205 203 194 195 199 194 191 192 189 189 180 179 182 173 175 172 175 178 177 177 181 186 181 168 169 159 167 167 170 173 154 146 70 29 64 57 133 103 82 87 119
208 202 202 199 206 194 196 199 195 196 191 191 183 189 184 182 181 177 184 187 177 183 187 183 188 191 175 167 170 168 177 173 172 146 147 151 1 337 132 355 356 146 140
220 201 206 207 206 198 196 198 193 194 198 202 196 188 180 185 184 185 191 186 179 189 191 185 186 183 176 174 170 171 183 178 181 165 160 177 158 256 288 307 266 222 197
218 199 202 208 202 202 198 197 196 190 193 194 191 183 179 180 185 193 195 190 186 192 187 194 196 195 180 185 188 185 192 191 188 184 190 195 181 230 268 286 267 172 279
210 198 198 206 203 205 201 197 199 188 190 191 195 189 190 184 184 190 192 197 193 190 197 193 195 182 189 195 187 185 182 198 205 208 199 205 201 212 237 266 260 285 259
207 199 194 197 205 211 202 201 200 204 200 201 199 199 193 188 186 191 194 195 192 181 195 198 208 208 196 188 199 181 167 200 213 219 218 208 215 206 233 248 205 228 262
218 203 195 201 207 213 205 200 196 196 193 202 202 203 199 196 190 192 195 203 194 194 205 208 211 216 203 191 195 185 160 196 171 192 217 211 213 223 221 239 250 233 232
301 208 197 199 211 217 215 205 200 190 204 197 202 198 205 197 193 197 195 198 199 193 205 211 212 215 207 205 204 186 189 177 200 192 188 198 205 224 226 223 244 250 246
317 347 194 198 210 216 219 214 206 199 193 197 196 197 195 195 192 193 192 199 196 193 206 210 216 216 205 209 212 205 207 205 204 201 208 208 212 219 226 231 231 248 252